User: anonymous   Login
Location: The D'Auria's Ocala Star Observatory
(29.0276°N, 82.1742°W)
Time: 00:52:07
(UTC-04:00)
Language:

Okean 3 Rocket - Orbit

View from above orbital plane
View from above orbital plane
View from above satellite
View from above satellite

Ground track
Ground track

The orbit data is extracted from the following two-line orbital elements,

1 21398U 91039B   14302.78720713  .00000470  00000-0  59816-4 0  8904
2 21398 082.5259 040.9414 0023093 094.2734 019.4949 14.79262388261751
Epoch (UTC): 29 October 2014 18:53:34
Eccentricity: 0.0023093
inclination: 82.5259°
perigee height: 615 km
apogee height: 648 km
right ascension of ascending node: 40.9414°
argument of perigee: 94.2734°
revolutions per day: 14.79262388
mean anomaly at epoch: 19.4949°
orbit number at epoch: 26175

The dashed part of the orbit path shows where the satellite is in the earth's shadow,  

DLR